Wind_Speed
13 15 15 17 19 20 21 24 24 25 25 25 26 25 25 27 15 21 28 30 29 27
15 16 15 19 19 19 23 25 25 26 26 28 27 25 28 16 24 28 29 30 27 23
16 14 18 19 19 22 24 25 27 28 29 32 30 26 16 26 33 31 31 28 27 24
16 15 18 18 21 23 24 27 28 29 32 32 29 18 27 33 30 33 30 29 24 25
14 18 19 21 22 24 26 26 28 30 30 30 24 26 28 30 30 30 29 29 28 25
16 18 20 22 24 26 27 29 28 29 29 32 22 28 30 31 32 29 27 27 25 25
17 19 20 22 24 26 28 29 29 29 27 30 24 27 34 33 32 30 27 25 26 25
16 18 20 21 24 25 29 29 30 31 31 31 25 29 35 36 32 30 28 28 27 26
16 19 22 23 26 29 32 32 33 34 32 33 29 34 38 40 34 32 32 30 30 28
15 19 21 24 27 30 33 34 35 35 36 36 33 35 41 42 34 31 33 31 24 26
14 18 21 25 28 31 33 33 33 34 35 34 33 34 41 41 33 31 32 30 27 26
12 15 20 24 26 29 34 36 34 31 33 32 33 34 41 41 33 31 31 23 28 28
12 16 18 21 24 25 30 36 34 35 36 32 35 36 41 40 34 31 29 25 28 27
10 13 17 19 24 25 29 35 41 39 40 38 37 38 40 39 36 34 28 27 28 29
Wind_Direction
8 5 4 3 357 354 351 351 351 347 345 344 340 337 333 325 314 326 327 322 312 310
9 3 10 2 359 356 354 353 350 349 346 343 339 333 332 325 328 329 323 316 315 306
11 11 7 7 4 359 357 356 352 349 347 344 341 336 337 338 336 328 320 316 311 318
12 16 10 11 7 2 358 355 354 355 351 352 352 350 347 347 337 328 323 321 312 309
25 17 15 11 8 5 4 6 2 1 3 0 353 355 355 341 336 330 326 322 317 303
28 20 15 12 9 12 10 8 6 7 5 1 350 359 353 347 341 335 331 325 330 322
29 23 18 14 15 15 12 11 9 9 4 1 354 350 351 350 343 337 333 331 330 328
29 26 20 19 18 16 14 13 12 10 6 4 0 355 353 351 347 340 336 338 336 332
33 27 23 25 24 24 20 17 15 13 5 1 358 354 354 355 349 344 341 341 340 346
36 31 31 31 27 21 17 15 15 12 8 4 357 355 356 355 350 348 344 341 348 346
39 38 37 31 27 22 17 14 13 10 6 2 355 356 356 354 353 351 345 343 349 348
38 37 29 26 21 18 14 15 12 6 2 0 354 357 358 357 355 354 347 354 356 356
47 40 29 22 18 13 13 14 10 9 8 2 356 359 0 0 358 358 352 1 359 359
28 23 18 15 16 11 12 12 12 10 9 2 358 356 0 2 4 4 354 3 360 360
Height
870 866 863 859 855 851 846 841 836 831 826 820 815 810 805 800 795 792 787 781 776 771
870 866 862 858 854 850 845 839 834 829 823 818 812 807 801 797 793 787 782 775 769 765
869 866 862 858 853 849 844 838 832 826 821 814 809 803 799 795 789 782 775 769 764 760
869 865 862 857 853 848 843 837 831 825 818 812 806 802 797 792 786 778 770 764 759 755
869 866 861 857 852 847 842 836 830 824 817 811 805 800 795 789 782 774 766 760 754 749
869 865 861 857 852 847 841 835 829 823 817 811 804 799 793 787 778 771 764 758 751 745
869 865 862 857 852 847 841 835 829 823 818 812 805 799 792 784 776 768 761 755 749 743
870 866 862 856 851 847 841 835 829 823 816 810 804 800 792 782 774 765 758 752 746 740
870 866 862 856 852 847 841 835 829 822 816 809 804 799 790 781 771 763 755 749 742 736
870 866 862 858 853 848 842 836 829 823 817 810 804 797 788 779 771 763 755 747 741 735
870 867 864 859 855 850 845 838 831 825 818 811 805 798 789 779 770 763 755 748 742 735
872 869 865 861 857 852 846 839 832 826 819 812 805 798 790 779 770 763 755 747 742 735
873 870 867 863 858 853 848 841 833 826 819 813 806 798 791 781 772 764 755 749 743 736
873 871 868 864 860 855 849 842 835 827 820 813 807 799 792 783 774 766 758 751 744 737